Regional Weather Roundup
Issued by NWS

Home | Current Version | Previous Version | Graphics & Text | Print | Product List | Glossary On
Versions: 1 2 3 4 5 6 7 8 9 10 11 12 13 14 15 16 17 18 19 20 21 22 23 24 25 26 27 28 29 30 31 32 33 34 35 36 37 38 39 40 41 42 43 44 45 46 47 48 49 50
000
ASUS43 KMPX 270101
RWRMN
WEATHER ROUNDUP FOR MINNESOTA
NATIONAL WEATHER SERVICE TWIN CITIES/CHANHASSEN MN
800 PM CDT MON SEP 26 2016


NOTE: "FAIR" INDICATES FEW OR NO CLOUDS BELOW 12,000 FEET WITH NO
SIGNIFICANT WEATHER AND/OR OBSTRUCTIONS TO VISIBILITY. N/A MEANS
CURRENT SKY AND/OR WEATHER CONDITIONS ARE NOT AVAILABLE.

MNZ060>063-068>070-270200-
   Twin Cities Metro

CITY           SKY/WX    TMP DP  RH WIND       PRES   REMARKS
TWIN CITIES    CLEAR     59  34  39 W9        29.88S
ST PAUL        CLEAR     59  35  40 W9        29.87S
CRYSTAL        CLEAR     58  34  40 W8        29.87S
BLAINE         CLEAR     59  36  41 W9        29.87S
LAKEVILLE      CLEAR     57  36  44 W8        29.89S
EDEN PRAIRIE   CLEAR     58  35  42 W8        29.88S
LAKEVILLE      CLEAR     57  36  44 W8        29.89S
SOUTH ST PAUL  CLEAR     61  32  34 W6        29.87S
LAKE ELMO      FAIR      55  37  50 W7        29.87S
$$
MNZ001>005-007-008-013>017-022>024-027-028-270200-
   Northwest Minnesota

CITY           SKY/WX    TMP DP  RH WIND       PRES   REMARKS
BEMIDJI        PTCLDY    51  40  67 W17G26    29.87R
HALLOCK        CLEAR     52  46  82 N9        29.92S
ROSEAU         CLOUDY    52  45  76 NW16G23   29.86R
WARROAD        CLOUDY    52  45  76 NW17G29   29.84R
THIEF RVR FALL CLEAR     50  43  77 NW10      29.92S
CROOKSTON      CLEAR     54  45  71 N5        29.93R
FOSSTON        CLEAR     48  41  76 NW8       29.92R
DETROIT LAKES  CLEAR     54  41  62 NW9       29.93S
MOORHEAD       CLEAR     59  28  31 NW15      29.95R
PARK RAPIDS    MOCLDY    56  39  53 NW15G23   29.88S
MAHNOMEN       FAIR      51  42  70 NW7       29.91S
$$
MNZ006-009>011-018-025>026-270200-
   North Central Minnesota

CITY           SKY/WX    TMP DP  RH WIND       PRES   REMARKS
BAUDETTE       CLOUDY    53  44  71 NW18G29   29.78S
FLAG ISLAND    CLOUDY    52  46  82 NW22G30   29.79R
INTL FALLS     LGT RAIN  50  47  89 W18G28    29.71S
WASKISH        CLOUDY    54  46  76 W17G28    29.81S
BIG FORK       LGT RAIN  52  45  76 W7G23     29.78R
GRAND RAPIDS   CLOUDY    53  43  68 NW14G30   29.81R
ORR            RAIN      48  45  87 W17G25    29.69S
COOK           RAIN      48  46  93 W18G26    29.72S
WALKER         MOCLDY    52  41  65 NW17G25   29.86R
$$
MNZ012-019>021-037-270200-
   Northeast Minnesota

CITY           SKY/WX    TMP DP  RH WIND       PRES   REMARKS
DULUTH         LGT RAIN  52  44  74 W18G28    29.73S
ELY            RAIN      48  46  93 W13G24    29.64F
HIBBING        LGT RAIN  48  45  89 W14G22    29.75R
EVELETH        LGT RAIN  50  47  90 W16G23    29.73S
DULUTH HARBOR  CLOUDY    57  46  67 W24G30    29.75R
TWO HARBORS    DRIZZLE   54  48  82 W15G24    29.66F
SILVER BAY     DRIZZLE   52  48  87 W9G16     29.63S
GRAND MARAIS     N/A     51  48  89 W8G18     29.55S
G MARAIS ARPRT DRIZZLE   46  43  87 W9G18     29.54S
$$
MNZ029>031-032-039>041-046>048-054>057-064-270200-
   West Central Minnesota

CITY           SKY/WX    TMP DP  RH WIND       PRES   REMARKS
FERGUS FALLS   CLEAR     55  32  41 NW12      29.95S
MORRIS         CLEAR     57  30  35 NW9       29.95R
ALEXANDRIA     CLEAR     58  32  37 NW15      29.93S
ELBOW LAKE     FAIR      57  32  38 W13       29.94S
GLENWOOD       CLEAR     55  32  41 W12       29.94R
BENSON         CLEAR     55  27  33 NW8       29.96R
ORTONVILLE     CLEAR     59  34  38 NW8       29.98R
MADISON          N/A     61  36  39 W9        29.98S
WILLMAR        FAIR      61  32  33 W10       29.95S
$$
MNZ033>034-036-042>043-049>051-058-059-270200-
   Central Minnesota

CITY           SKY/WX    TMP DP  RH WIND       PRES   REMARKS
ST CLOUD       CLEAR     52  40  63 W6        29.88S
SAUK CENTRE    FAIR      55  36  47 W9        29.92R
PAYNESVILLE    CLEAR     55  32  41 W7        29.93R
AITKIN         CLOUDY    57  39  51 W8        29.82S
PINE RIVER     CLOUDY    55  43  62 W12G17    29.89S
BRAINERD       CLOUDY    57  40  52 NW15G24   29.86S
STAPLES        PTCLDY    54  37  54 NW9       29.89S
LONG PRAIRIE   FAIR      54  36  50 W10       29.91R
LITTLE FALLS   CLEAR     54  37  54 NW5       29.89R
LITCHFIELD     CLEAR     61  37  41 W6        29.92S
BUFFALO        CLEAR     57  36  45 W7        29.90R
MAPLE LAKE     CLEAR     57  38  49 W6        29.90S
HUTCHINSON     CLEAR     59  34  39 W10       29.93S
$$
MNZ037-044-045-052-053-270200-
   East Central Minnesota

CITY           SKY/WX    TMP DP  RH WIND       PRES   REMARKS
PRINCETON      CLEAR     55  39  54 W5        29.88R
MORA           CLOUDY    54  37  54 W6        29.86S
CAMBRIDGE      CLEAR     59  41  51 W7        29.85R
MOOSE LAKE     CLOUDY    55  41  58 W6        29.79S
HINCKLEY       CLOUDY    55  43  62 W6        29.83S
CLOQUET        LGT RAIN  54  39  58 W18G26    29.76S
MCGREGOR       CLOUDY    55  43  62 W13G20    29.82R
$$
MNZ071>073-080-081-089-090-097-098-270200-
   Southwest Minnesota

CITY           SKY/WX    TMP DP  RH WIND       PRES   REMARKS
MONTEVIDEO     CLEAR     59  34  38 NW8       29.98S
GRANITE FALLS  CLEAR     58  38  47 W8        29.98S
CANBY          CLEAR     55  37  51 W6        30.01R
MARSHALL       CLEAR     53  36  52 W9        29.99S
REDWOOD FALLS  CLEAR     59  33  37 W13       29.95S
OLIVIA         CLEAR     55  36  47 W9        29.95R
PIPESTONE      CLEAR     61  27  27 NW7       30.02S
WINDOM         CLEAR     55  34  44 W7        29.99S
WORTHINGTON    CLEAR     55  34  45 W10       30.02S
JACKSON        CLEAR     59  30  33 W9        30.00S
TRACY          CLEAR     58  36  42 W3        30.00R
$$
MNZ065>067-074>077-082>085-091>093-270200-
   South Central Minnesota

CITY           SKY/WX    TMP DP  RH WIND       PRES   REMARKS
MANKATO        CLEAR     61  34  36 W13       29.93F
ST JAMES       CLEAR     57  36  44 W8        29.98S
FAIRMONT       CLEAR     60  35  39 W10       29.98S
GLENCOE        CLEAR     60  37  41 W6        29.91S
FARIBAULT      CLEAR     59  36  41 W8        29.92S
OWATONNA       CLEAR     59  30  33 W9        29.92S
WASECA         CLEAR     55  36  47 W6        29.94S
ALBERT LEA     CLEAR     59  34  38 W5        29.95S
$$
MNZ078>079-086>088-094>096-270200-
   Southeast Minnesota

CITY           SKY/WX    TMP DP  RH WIND       PRES   REMARKS
ROCHESTER      CLEAR     56  35  45 W8        29.91S
RED WING       CLEAR     57  34  41 NW3       29.86S
DODGE CENTER   CLEAR     57  32  38 W10       29.92R
WINONA         CLEAR     61  32  33 W6        29.88S
AUSTIN         CLEAR     57  34  41 W7        29.93S
PRESTON        CLEAR     54  34  47 W9        29.92S
$$
ABBREVIATIONS USED IN REMARKS
   TC - TEMPERATURES IN CELSIUS
  WCI - WIND CHILL INDEX
   HX - HEAT INDEX
  VSB - VISIBILITY
$$



USA.gov is the U.S. government's official web portal to all federal, state and local government web resources and services.